Flag for Colombia Weather past 2 weeks in Medellin, Colombia

Now
55 °F

Broken clouds.


Feels Like: 55 °F
Forecast: 60 / 83 °F
Wind: No wind

Location: Rionegro / J. M. Cordova

Current Time: Aug 27, 2014 at 8:03:53 AM

Latest Report: Aug 27, 2014 at 7:00 AM


Visibility: N/A

Pressure: 30.32 "Hg

Humidity: 100%

Dew point: 55 °F

Location of MedellinLocation

Historic Weather in Medellin — Graph

°F

Medellin temperature yesterday

Maximum temperature yesterday: 72 °F (at 12:00 PM)
Minimum temperature yesterday: 57 °F (at 3:00 AM)
Average temperature yesterday: 63 °F

Past Weeks' High & Low Weather Summary

 TemperatureHumidityPressure
High75 °F (Aug 15, 2:00 PM)100% (Aug 12, 8:00 AM)30.38 "Hg (Aug 12, 8:00 AM)
Low50 °F (Aug 15, 5:00 AM)38% (Aug 15, 3:00 PM)30.14 "Hg (Aug 25, 4:00 PM)
Average63 °F76%30.28 "Hg
* Reported Aug 12 6:00 AM — Aug 27 6:00 AM, Medellin, Weather by CustomWeather, © 2014

Note: Actual official high and low records may vary slightly from our data, if they occured in-between our weather recording intervals... More about our weather records

Advertising

Medellin weather history for previous 24 hours

 ConditionsComfort  
Time TempWeatherWind HumidityBarometerVisibility
6:00 AM
Aug 27
57 °FBroken clouds.No wind94%30.30 "HgN/A
5:00 AM57 °FMostly cloudy.No wind100%30.30 "Hg5 mi
4:00 AM57 °FDrizzle. Mostly cloudy.No wind100%30.30 "Hg4 mi
3:00 AM59 °FRain. Mostly cloudy.No wind94%30.29 "Hg5 mi
1:00 AM59 °FPartly cloudy.No wind94%30.32 "HgN/A
12:00 AM59 °FOvercast.No wind94%30.34 "HgN/A
11:00 PM
Aug 26
59 °FOvercast.No wind94%30.34 "HgN/A
10:00 PM59 °FOvercast.No wind94%30.33 "HgN/A
9:00 PM61 °FPassing clouds.No wind88%30.30 "HgN/A
8:00 PM61 °FPartly cloudy.No wind94%30.28 "HgN/A
7:00 PM61 °FPartly cloudy.No wind83%30.25 "HgN/A
6:00 PM61 °FThunderstorms. Scattered clouds.9 mph94%30.22 "Hg5 mi
5:00 PM68 °FScattered clouds.12 mph60%30.19 "HgN/A
4:00 PM72 °FPartly sunny.12 mph53%30.19 "HgN/A
3:00 PM72 °FPartly sunny.12 mph53%30.20 "HgN/A
2:00 PM72 °FOvercast.14 mph57%30.23 "HgN/A
1:00 PM72 °FBroken clouds.12 mph53%30.26 "HgN/A
12:00 PM72 °FBroken clouds.9 mph47%30.27 "HgN/A
11:00 AM68 °FBroken clouds.5 mph60%30.29 "HgN/A
10:00 AM66 °FPartly sunny.No wind68%30.32 "HgN/A
9:00 AM61 °FBroken clouds.No wind88%30.32 "HgN/A
8:00 AM57 °FDrizzle. More clouds than sun.No wind100%30.32 "Hg2 mi
Weather by CustomWeather, © 2014

See weather overviewHow to use our weather pages